NIMBUS 2 DEB, 59972

Orbit data source: Space-Track

NIMBUS 2 DEB, 59972 is space debris in SSO originally from a launch on Sun, 15 May 1966 UTC launched from the Air Force Western Test Range (AFWTR). Debris objects in space refer to the collection of defunct objects orbiting the Earth. Examples of debris include non-operational satellites, rocket bodies, and fragments generated from explosions, collisions, or faulty payload assembly.

Loading next visibility...
Identifier
59972, 1966-040CB
Orbit
SSO
Country
Flag of USUS
Related business
Manufacturer
Unknown
Mission
Spacecraft
Bus & Motor
Unknown
Mass
Unknown
Launch date (UTC)
1966-05-15 (59 years ago)
Launch vehicle
Unknown
Launch site
Air Force Western Test Range (AFWTR)
Object type
Payload
Rocket body
Debris
Shape & HBR
Unknown shape, 0.1 m
Radar Cross Section
Small (<0.1 m²)

Expand to show TLE details & history
Last TLE update: 22 hours ago

TLE from 22 hours ago
0 NIMBUS 2 DEB
1 59972U 66040CB  25290.12678297  .00001679  00000-0  32068-2 0  9992
2 59972 100.4596 127.3369 0042029 114.3445 246.2077 13.38955734227219
Epoch: 2025-10-17T03:02Z
TLE epoch observation values (Epoch: 2025-10-17T03:02:34.048Z)
Latitude
-0°
Longitude
55.81841°
Altitude
1,128.73 km
Speed
7.282 km/s
True Right ascension
08h 29m 20s
True Declination
0° 00' 00"
Sunlit
Object was in daylight at epoch
Visualization orbit readout
Latitude
Unknown
Longitude
Unknown
Altitude
Unknown
Speed
Unknown
Apparent Right ascension
Unknown
Apparent Declination
Unknown
Sunlit
N/A
Visualization observer readout
Local Sidereal Time
20:00:39
Azimuth
Unknown
Elevation
Unknown
Doppler factor
Unknown
Orbital elements
Apogee altitude
1,142.002 km
Perigee altitude
1,079.054 km
Semi-major axis
7,488.665 km
Eccentricity
0.0042
Inclination
100.4596°
RAAN
127.3369°
Arg. of periapsis
114.3445°
True anomaly
245.76795°
Mean anomaly
246.2077°
Eccentric anomaly
245.98773°
Mean motion
3.34917 °/min
Orbital period
107.49 mins
BSTAR
0.0032068
Loading maneuver chart data...
Computing Atmospheric mass density...
Loading historical data...
Loading historical data...
Loading historical data...
Loading historical data...
Loading historical data...
Loading historical data...
Loading historical data...

Documentation

Showing up to 5 results
|